User: anonymous   Login
Location: Makanda
(37.6176°N, 89.2090°W)
Time: 07:01:29
(UTC+00:00)
Language:

Cosmos 1680 Rocket - Orbit

View from above orbital plane
View from above orbital plane
View from above satellite
View from above satellite

Ground track
Ground track

The orbit data is extracted from the following two-line orbital elements,

1 16012U 85079B   19320.54085674 -.00000065 +00000-0 -13288-4 0  9992
2 16012 074.0571 316.6626 0015004 354.9932 005.1069 14.36335574790278
Epoch (UTC): 16 November 2019 12:58:50
Eccentricity: 0.0015004
inclination: 74.0571°
perigee height: 760 km
apogee height: 781 km
right ascension of ascending node: 316.6626°
argument of perigee: 354.9932°
revolutions per day: 14.36335574
mean anomaly at epoch: 5.1069°
orbit number at epoch: 79027

The dashed part of the orbit path shows where the satellite is in the earth's shadow,  

DLR